Printer-friendly version

IAU Minor Planet Center

Minor Planet Center

MPEC 2008-F32 : COMETS C/2002 Q8, 2008 E4, 2008 F1 (SOHO)

The following Minor Planet Electronic Circular may be linked-to from your own Web pages, but must not otherwise be redistributed electronically.


Read MPEC 2008-F31 Read MPEC 2008-F33


M.P.E.C. 2008-F32                                Issued 2008 Mar. 26, 03:16 UT

     The Minor Planet Electronic Circulars contain information on unusual
         minor planets and routine data on comets.  They are published
   on behalf of Commission 20 of the International Astronomical Union by the
          Minor Planet Center, Smithsonian Astrophysical Observatory,
                          Cambridge, MA 02138, U.S.A.

             Prepared using the Tamkin Foundation Computer Network

                              MPC@CFA.HARVARD.EDU
          URL http://www.cfa.harvard.edu/iau/mpc.html  ISSN 1523-6714

                   COMETS C/2002 Q8, 2008 E4, 2008 F1 (SOHO)

Observations:
    CK02Q080 2S2002 08 26.01812 10 11 40.8  +11 46 01                   EF032249
    CK02Q080 2s2002 08 26.01812 2 -0.01030430 +0.00035808 +0.00009732   EF032249
    CK02Q080 2S2002 08 26.03480 10 12 03.3  +11 44 53                   EF032249
    CK02Q080 2s2002 08 26.03480 2 -0.01030519 +0.00035582 +0.00009583   EF032249
    CK02Q080 2S2002 08 26.06058 10 12 36.8  +11 42 57                   EF032249
    CK02Q080 2s2002 08 26.06058 2 -0.01030657 +0.00035233 +0.00009353   EF032249
    CK02Q080 2S2002 08 26.07645 10 12 58.2  +11 41 33                   EF032249
    CK02Q080 2s2002 08 26.07645 2 -0.01030742 +0.00035019 +0.00009212   EF032249
    CK02Q080 2S2002 08 26.08756 10 13 12.6  +11 40 39                   EF032249
    CK02Q080 2s2002 08 26.08756 2 -0.01030801 +0.00034869 +0.00009113   EF032249
    CK02Q080 2S2002 08 26.10146 10 13 31.3  +11 39 26                   EF032249
    CK02Q080 2s2002 08 26.10146 2 -0.01030875 +0.00034681 +0.00008989   EF032249
    CK02Q080 2S2002 08 26.11812 10 13 54.3  +11 38 02                   EF032249
    CK02Q080 2s2002 08 26.11812 2 -0.01030964 +0.00034456 +0.00008840   EF032249
    CK02Q080 2S2002 08 26.12923 10 14 08.7  +11 37 07                   EF032249
    CK02Q080 2s2002 08 26.12923 2 -0.01031023 +0.00034306 +0.00008741   EF032249
    CK02Q080 2S2002 08 26.14312 10 14 27.8  +11 35 49                   EF032249
    CK02Q080 2s2002 08 26.14312 2 -0.01031097 +0.00034118 +0.00008618   EF032249
    CK02Q080 2S2002 08 26.15979 10 14 50.5  +11 34 42                   EF032249
    CK02Q080 2s2002 08 26.15979 2 -0.01031186 +0.00033893 +0.00008469   EF032249
    CK02Q080 2S2002 08 26.17090 10 15 05.4  +11 33 12                   EF032249
    CK02Q080 2s2002 08 26.17090 2 -0.01031245 +0.00033743 +0.00008370   EF032249
    CK02Q080 2S2002 08 26.18479 10 15 24.8  +11 31 59                   EF032249
    CK02Q080 2s2002 08 26.18479 2 -0.01031318 +0.00033556 +0.00008247   EF032249
    CK02Q080 2S2002 08 26.20145 10 15 47.1  +11 30 27                   EF032249
    CK02Q080 2s2002 08 26.20145 2 -0.01031407 +0.00033331 +0.00008098   EF032249
    CK02Q080 2S2002 08 26.21256 10 16 02.0  +11 29 08                   EF032249
    CK02Q080 2s2002 08 26.21256 2 -0.01031466 +0.00033181 +0.00007999   EF032249
    CK02Q080 2S2002 08 26.22645 10 16 21.0  +11 27 53                   EF032249
    CK02Q080 2s2002 08 26.22645 2 -0.01031539 +0.00032994 +0.00007876   EF032249
    CK02Q080 2S2002 08 26.24312 10 16 43.6  +11 26 28                   EF032249
    CK02Q080 2s2002 08 26.24312 2 -0.01031627 +0.00032769 +0.00007728   EF032249
    CK02Q080 2S2002 08 26.25423 10 16 59.2  +11 25 09                   EF032249
    CK02Q080 2s2002 08 26.25423 2 -0.01031686 +0.00032619 +0.00007629   EF032249
    CK02Q080 2S2002 08 26.26812 10 17 17.9  +11 23 31                   EF032249
    CK02Q080 2s2002 08 26.26812 2 -0.01031760 +0.00032433 +0.00007505   EF032249
    CK02Q080 2S2002 08 26.28480 10 17 40.7  +11 21 53                   EF032249
    CK02Q080 2s2002 08 26.28480 2 -0.01031848 +0.00032208 +0.00007357   EF032249
    CK08E040 2S2008 03 03.25422 23 02 33.3  -05 17 53                   EF032249
    CK08E040 2s2008 03 03.25422 2 +0.00975366 -0.00445265 -0.00279354   EF032249
    CK08E040 2S2008 03 03.27088 23 02 19.5  -05 18 38                   EF032249
    CK08E040 2s2008 03 03.27088 2 +0.00975413 -0.00445194 -0.00279302   EF032249
    CK08E040 2S2008 03 03.28755 23 02 05.8  -05 19 14                   EF032249
    CK08E040 2s2008 03 03.28755 2 +0.00975461 -0.00445122 -0.00279250   EF032249
    CK08E040 2S2008 03 03.31322 23 01 44.4  -05 20 25                   EF032249
    CK08E040 2s2008 03 03.31322 2 +0.00975534 -0.00445011 -0.00279170   EF032249
    CK08E040 2S2008 03 03.32922 23 01 30.7  -05 21 14                   EF032249
    CK08E040 2s2008 03 03.32922 2 +0.00975579 -0.00444942 -0.00279120   EF032249
    CK08E040 2S2008 03 03.33755 23 01 24.3  -05 21 35                   EF032249
    CK08E040 2s2008 03 03.33755 2 +0.00975603 -0.00444906 -0.00279094   EF032249
    CK08E040 2S2008 03 03.35422 23 01 09.7  -05 22 29                   EF032249
    CK08E040 2s2008 03 03.35422 2 +0.00975650 -0.00444834 -0.00279042   EF032249
    CK08E040 2S2008 03 03.37089 23 00 55.1  -05 23 29                   EF032249
    CK08E040 2s2008 03 03.37089 2 +0.00975697 -0.00444762 -0.00278990   EF032249
    CK08E040 2S2008 03 03.37922 23 00 48.1  -05 23 55                   EF032249
    CK08E040 2s2008 03 03.37922 2 +0.00975721 -0.00444726 -0.00278964   EF032249
    CK08E040 2S2008 03 03.39588 23 00 33.1  -05 24 45                   EF032249
    CK08E040 2s2008 03 03.39588 2 +0.00975768 -0.00444654 -0.00278912   EF032249
    CK08E040 2S2008 03 03.41255 23 00 19.7  -05 26 03                   EF032249
    CK08E040 2s2008 03 03.41255 2 +0.00975816 -0.00444581 -0.00278859   EF032249
    CK08E040 2S2008 03 03.42090 23 00 11.3  -05 26 21                   EF032249
    CK08E040 2s2008 03 03.42090 2 +0.00975839 -0.00444545 -0.00278833   EF032249
    CK08E040 2S2008 03 03.43812 22 59 56.4  -05 27 33                   EF032249
    CK08E040 2s2008 03 03.43812 2 +0.00975888 -0.00444470 -0.00278779   EF032249
    CK08F010 2S2008 03 19.93755 00 03 54.9  +01 22 23                   EF032249
    CK08F010 2s2008 03 19.93755 2 +0.01006341 -0.00341439 -0.00203721   EF032249
    CK08F010 2S2008 03 19.96256 00 03 19.5  +01 27 33                   EF032249
    CK08F010 2s2008 03 19.96256 2 +0.01006376 -0.00341243 -0.00203578   EF032249
    CK08F010 2S2008 03 19.97922 00 02 57.0  +01 31 09                   EF032249
    CK08F010 2s2008 03 19.97922 2 +0.01006400 -0.00341112 -0.00203483   EF032249
    CK08F010 2S2008 03 19.99589 00 02 32.0  +01 33 53                   EF032249
    CK08F010 2s2008 03 19.99589 2 +0.01006423 -0.00340981 -0.00203387   EF032249
    CK08F010 2S2008 03 20.00422 00 02 19.4  +01 35 23                   EF032249
    CK08F010 2s2008 03 20.00422 2 +0.01006435 -0.00340916 -0.00203340   EF032249
    CK08F010 2S2008 03 20.02088 00 01 55.6  +01 37 46                   EF032249
    CK08F010 2s2008 03 20.02088 2 +0.01006459 -0.00340785 -0.00203245   EF032249
    CK08F010 2S2008 03 20.03756 00 01 30.3  +01 40 22                   EF032249
    CK08F010 2s2008 03 20.03756 2 +0.01006482 -0.00340654 -0.00203149   EF032249
    CK08F010 2S2008 03 20.06322 00 00 49.9  +01 43 15                   EF032249
    CK08F010 2s2008 03 20.06322 2 +0.01006519 -0.00340453 -0.00203002   EF032249
    CK08F010 2S2008 03 20.07922 00 00 11.4  +01 45 24                   EF032249
    CK08F010 2s2008 03 20.07922 2 +0.01006542 -0.00340327 -0.00202910   EF032249
    CK08F010 2S2008 03 20.08755 23 59 59.7  +01 48 04                   EF032249
    CK08F010 2s2008 03 20.08755 2 +0.01006553 -0.00340261 -0.00202862   EF032249

Observer details:
249 SOHO.  SOHO-LASCO coronagraph C2.  Comet detections by X.-M. Zhou, H. Su
    and R. Kracht, measurements by K. Battams, reductions by B. G. Marsden.
    The results for C/2002 Q8 are remeasurements of the observations on
    MPEC 2002-Q46 and MPC 46495.

Orbital elements:
Comet            T              q       e       Peri.    Node     Incl.     C
CK02Q080   2002 Aug.  25.93   0.0479   1.0      51.16    50.38    13.70     X
CK08E040   2008 Mar.   3.01   0.0499   1.0      50.61    51.85    13.13     X
CK08F010   2008 Mar.  20.01   0.0318   1.0      46.12    94.56    66.71     X

     R. Kracht suggested the identity of the Kracht group comets C/2002 Q8 and
C/2008 E4 on the basis of the MPEC 2002-Q46 measurements of the former and his
own measurements of the latter.  He gave the previous perihelion date T =
1997 Feb. 14.9 but was unable to locate the comet on C2 images from that time.
The linked orbit below was computed by the undersigned from the measurements
given above.

    C/2002 Q8 = 2008 E4 (SOHO)
Epoch 2002 Sept. 3.0 TT = JDT 2452520.5
T 2002 Aug. 25.92003 TT                                 MPC
q   0.0491639            (2000.0)            P               Q
n   0.17863694     Peri.   50.31482     -0.20168927     -0.96214332
a   3.1224000      Node    52.29189     +0.81268325     -0.26885297
e   0.9842545      Incl.   13.39727     +0.54668764     +0.04470253
P   5.52

Epoch 2008 Feb. 24.0 TT = JDT 2454520.5
T 2008 Mar. 3.01620 TT                                  MPC
q   0.0494407            (2000.0)            P               Q
n   0.17852113     Peri.   50.78177     -0.20258361     -0.96235465
a   3.1237503      Node    51.86699     +0.81241789     -0.26847638
e   0.9841727      Incl.   13.31853     +0.54675136     +0.04235514
P   5.52
Residuals in seconds of arc
K028Q  249(20.1-  7.9+)Y  K028Q  249  6.8+ 11.3+ Y  K0833  249  5.4-  2.4+ Y
K028Q  249  8.6- 14.3+ Y  K028Q  249  2.5+ 14.6+ Y  K0833  249  7.9-  0.6+ Y
K028Q  249(13.9- 18.2+)Y  K028Q  249  0.2-  0.2+ Y  K0833  249  2.6+  5.1+ Y
K028Q  249  8.1- 10.8+ Y  K028Q  249  1.7+  6.8+ Y  K0833  249  1.5-  3.8+ Y
K028Q  249 13.5- 11.7+ Y  K028Q  249 (1.0+ 21.2+)Y  K0833  249  3.6-  1.2- Y
K028Q  249 11.1-  8.7+ Y  K028Q  249  8.5+  9.2+ Y  K0833  249  0.4+  1.1+ Y
K028Q  249  0.9- 10.7+ Y  K028Q  249  6.0+  4.1- Y  K0833  249  5.1-  9.4+ Y
K028Q  249  8.6- 14.1+ Y  K028Q  249  8.3+  0.7+ Y  K0833  249 15.1+  8.3- Y
K028Q  249  2.8- 10.4+ Y  K0833  249  1.2+  1.4+ Y  K0833  249  0.5+  4.7+ Y
K028Q  249 (0.1+ 34.4+)Y  K0833  249  4.3-  3.9- Y  K0833  249  7.6+  2.0- Y
K028Q  249  1.8-  6.0+ Y  K0833  249  5.1-  2.7+ Y

Brian G. Marsden             (C) Copyright 2008 MPC           M.P.E.C. 2008-F32

Read MPEC 2008-F31 Read MPEC 2008-F33


Our Web policy. Index to the CBAT/MPC/ICQ pages.


Valid HTML 4.01!